contact:dominique.lefevre@mio.osupytheas.fr, maurice.libes@osupytheas.fr, didier.mallarino@osupytheas.fr
Project:EMSO http://www.emso-fr.org/EMSO-France
Depth: 2436.0 m
Title:EMSO Ligure Ouest : Data MII capteur AQUADOPP
Date,Latitude,Longitude,X_East,Y_North,Z_Up,Amplitude_X,Amplitude_Y,Amplitude_Z,Batterie,SoundSpeed,Heading,Pitch,Roll,Pressure,TIS,Speed,Direction
, degrees North, degrees East, m.s-1, m.s-1,m.s-1, 1, 1, 1, Volt, m.s-1, degree, degree, degree, dbar, degree_C, m.s-1, degree
2019-07-10T00:09:05,42.805,6.029,0.008,-0.022,-0.035,103.0,108.0,100.0,13.4,1505.2,324.3,-0.8,1.8,2470.251,13.29,0.023,160.0
2019-07-10T00:12:06,42.805,6.029,0.008,-0.011,-0.015,105.0,107.0,101.0,13.4,1505.3,322.8,-0.8,1.8,2470.227,13.31,0.013,144.0
2019-07-10T00:15:07,42.805,6.029,0.001,-0.002,-0.007,102.0,107.0,100.0,13.4,1505.3,323.9,-0.7,1.9,2470.217,13.31,0.002,153.4
2019-07-10T00:18:08,42.805,6.029,0.031,-0.04,-0.027,103.0,106.0,100.0,13.4,1505.3,323.2,-0.7,1.8,2470.252,13.32,0.05,142.2
2019-07-10T00:21:09,42.805,6.029,-0.006,-0.021,-0.014,103.0,105.0,99.0,13.3,1505.3,327.0,-0.7,1.8,2470.232,13.32,0.021,195.9
2019-07-10T00:24:10,42.805,6.029,0.012,0.01,-0.018,101.0,106.0,99.0,13.3,1505.3,327.7,-0.7,1.9,2470.251,13.32,0.015,50.2
2019-07-10T00:27:11,42.805,6.029,0.012,0.004,0.004,103.0,106.0,99.0,13.3,1505.3,327.0,-0.7,1.9,2470.169,13.33,0.012,71.6
2019-07-10T00:30:12,42.805,6.029,0.013,-0.004,-0.052,104.0,107.0,99.0,13.4,1505.3,325.3,-0.7,1.9,2470.188,13.33,0.013,107.1
2019-07-10T00:33:13,42.805,6.029,0.008,-0.004,-0.019,104.0,106.0,101.0,13.3,1505.3,327.2,-0.7,1.9,2470.256,13.33,0.008,116.6
2019-07-10T00:36:14,42.805,6.029,0.014,-0.001,-0.036,103.0,107.0,99.0,13.4,1505.3,327.8,-0.7,1.8,2470.253,13.33,0.014,94.1
2019-07-10T00:39:15,42.805,6.029,0.001,-0.005,-0.006,103.0,105.0,100.0,13.4,1505.3,323.2,-0.7,1.8,2470.142,13.33,0.005,168.7
2019-07-10T00:42:16,42.805,6.029,0.006,-0.009,-0.009,103.0,106.0,99.0,13.4,1505.3,324.8,-0.7,1.8,2470.196,13.33,0.01,146.3
2019-07-10T00:45:17,42.805,6.029,0.012,0.003,-0.001,105.0,106.0,99.0,13.4,1505.3,325.2,-0.7,1.8,2470.154,13.33,0.012,76.0
2019-07-10T00:48:18,42.805,6.029,0.006,-0.015,-0.039,105.0,107.0,100.0,13.4,1505.3,325.4,-0.7,1.8,2470.187,13.33,0.016,158.2
2019-07-10T00:51:19,42.805,6.029,0.018,-0.011,0.005,106.0,108.0,99.0,13.3,1505.3,323.9,-0.7,1.8,2470.187,13.33,0.021,121.4
2019-07-10T00:54:20,42.805,6.029,-0.017,-0.022,-0.012,104.0,107.0,101.0,13.4,1505.3,326.0,-0.7,1.8,2470.169,13.33,0.027,217.7
2019-07-10T00:57:21,42.805,6.029,0.012,0.018,-0.002,103.0,105.0,99.0,13.3,1505.3,327.0,-0.7,1.8,2470.187,13.33,0.021,33.7
2019-07-10T01:00:22,42.805,6.029,0.005,-0.032,-0.002,105.0,105.0,101.0,13.4,1505.3,322.7,-0.7,1.8,2470.157,13.33,0.032,171.1
2019-07-10T01:03:23,42.805,6.029,-0.01,-0.022,-0.019,103.0,107.0,100.0,13.3,1505.3,328.2,-0.7,1.8,2470.209,13.33,0.024,204.4
2019-07-10T01:06:24,42.805,6.029,0.007,-0.012,0.024,104.0,107.0,100.0,13.4,1505.3,325.2,-0.7,1.8,2470.191,13.33,0.013,149.7
2019-07-10T01:09:25,42.805,6.029,0.005,-0.01,-0.025,103.0,105.0,100.0,13.4,1505.3,326.6,-0.7,1.9,2470.164,13.33,0.011,153.4
2019-07-10T01:12:26,42.805,6.029,0.001,-0.014,-0.041,104.0,106.0,100.0,13.4,1505.3,326.5,-0.7,1.9,2470.198,13.33,0.014,175.9
2019-07-10T01:15:27,42.805,6.029,0.002,-0.007,0.0,103.0,107.0,100.0,13.4,1505.3,325.9,-0.7,1.8,2470.142,13.33,0.007,164.1
2019-07-10T01:18:28,42.805,6.029,0.036,-0.003,0.01,104.0,107.0,97.0,13.4,1505.3,323.6,-0.7,1.8,2470.197,13.33,0.036,94.8
2019-07-10T01:21:29,42.805,6.029,0.018,-0.005,0.014,104.0,107.0,99.0,13.4,1505.3,326.4,-0.7,1.9,2470.154,13.33,0.018,105.5
2019-07-10T01:24:30,42.805,6.029,0.018,-0.034,0.009,104.0,106.0,100.0,13.4,1505.3,328.1,-0.7,1.9,2470.184,13.33,0.038,152.1
2019-07-10T01:27:31,42.805,6.029,0.029,-0.023,-0.025,104.0,106.0,100.0,13.4,1505.3,328.1,-0.7,1.8,2470.168,13.33,0.037,128.4
2019-07-10T01:30:32,42.805,6.029,0.02,-0.008,0.01,105.0,107.0,99.0,13.4,1505.3,323.0,-0.7,1.8,2470.122,13.33,0.021,111.8
2019-07-10T01:33:33,42.805,6.029,0.009,-0.022,-0.038,103.0,107.0,99.0,13.4,1505.3,324.9,-0.7,1.9,2470.142,13.33,0.023,157.8
2019-07-10T01:36:34,42.805,6.029,0.004,0.001,-0.031,104.0,108.0,99.0,13.4,1505.3,326.0,-0.7,1.8,2470.169,13.33,0.004,76.0
2019-07-10T01:39:35,42.805,6.029,-0.015,-0.028,-0.03,104.0,107.0,99.0,13.4,1505.3,326.7,-0.8,1.8,2470.216,13.33,0.031,208.2
2019-07-10T01:42:36,42.805,6.029,-0.014,0.004,-0.012,103.0,106.0,99.0,13.4,1505.3,327.1,-0.7,1.9,2470.159,13.33,0.014,285.9
2019-07-10T01:45:37,42.805,6.029,-0.003,-0.006,-0.038,105.0,106.0,100.0,13.4,1505.3,323.8,-0.7,1.8,2470.175,13.33,0.006,206.6
2019-07-10T01:48:38,42.805,6.029,-0.007,-0.02,-0.002,103.0,106.0,100.0,13.4,1505.3,328.2,-0.7,1.8,2470.192,13.33,0.021,199.3
2019-07-10T01:51:39,42.805,6.029,-0.012,0.0,0.019,104.0,107.0,100.0,13.4,1505.3,323.0,-0.7,1.8,2470.182,13.33,0.012,270.0
2019-07-10T01:54:40,42.805,6.029,0.005,-0.023,-0.043,104.0,107.0,101.0,13.4,1505.3,322.9,-0.7,1.8,2470.175,13.33,0.023,167.7
2019-07-10T01:57:41,42.805,6.029,-0.028,-0.012,-0.069,105.0,107.0,101.0,13.4,1505.3,323.2,-0.7,1.8,2470.203,13.33,0.03,246.8
2019-07-10T02:00:42,42.805,6.029,-0.026,-0.021,-0.022,105.0,106.0,100.0,13.4,1505.3,325.0,-0.7,1.8,2470.153,13.33,0.033,231.1
2019-07-10T02:03:43,42.805,6.029,-0.023,-0.024,-0.054,106.0,107.0,100.0,13.4,1505.3,326.4,-0.7,1.8,2470.192,13.33,0.033,223.8
2019-07-10T02:06:44,42.805,6.029,0.0,-0.008,-0.041,105.0,107.0,101.0,13.4,1505.3,326.1,-0.7,1.8,2470.147,13.33,0.008,180.0
2019-07-10T02:09:45,42.805,6.029,-0.01,-0.02,-0.009,105.0,106.0,103.0,13.4,1505.3,324.9,-0.7,1.9,2470.168,13.33,0.022,206.6
2019-07-10T02:12:46,42.805,6.029,-0.009,-0.024,-0.068,104.0,107.0,100.0,13.4,1505.3,326.0,-0.7,1.8,2470.168,13.33,0.025,200.6
2019-07-10T02:15:47,42.805,6.029,0.009,-0.03,-0.013,102.0,107.0,100.0,13.4,1505.3,327.8,-0.7,1.8,2470.157,13.33,0.031,163.3
2019-07-10T02:18:48,42.805,6.029,-0.036,-0.026,-0.085,104.0,107.0,100.0,13.4,1505.3,325.5,-0.7,1.8,2470.187,13.33,0.044,234.2
2019-07-10T02:21:49,42.805,6.029,-0.003,-0.013,-0.007,105.0,108.0,101.0,13.3,1505.3,327.5,-0.7,1.8,2470.177,13.33,0.013,193.0
2019-07-10T02:24:50,42.805,6.029,-0.011,0.0,-0.009,103.0,107.0,101.0,13.4,1505.3,325.4,-0.7,1.9,2470.173,13.33,0.011,270.0
2019-07-10T02:27:51,42.805,6.029,-0.008,-0.011,-0.035,102.0,105.0,98.0,13.4,1505.3,326.9,-0.7,1.8,2470.167,13.33,0.013,216.0
2019-07-10T02:30:52,42.805,6.029,-0.035,-0.015,-0.04,102.0,105.0,100.0,13.3,1505.3,324.1,-0.7,1.8,2470.173,13.33,0.038,246.8
2019-07-10T02:33:53,42.805,6.029,0.005,-0.015,-0.002,107.0,107.0,101.0,13.3,1505.3,322.9,-0.7,1.9,2470.155,13.33,0.015,161.6
2019-07-10T02:36:54,42.805,6.029,0.011,0.002,0.001,104.0,106.0,100.0,13.4,1505.3,324.3,-0.7,1.9,2470.175,13.33,0.011,79.7
2019-07-10T02:39:55,42.805,6.029,0.017,-0.031,-0.017,102.0,105.0,101.0,13.3,1505.3,323.9,-0.7,1.8,2470.185,13.33,0.035,151.3
2019-07-10T02:42:56,42.805,6.029,-0.013,-0.039,-0.039,104.0,107.0,99.0,13.4,1505.3,324.4,-0.7,1.8,2470.147,13.33,0.041,198.4
2019-07-10T02:45:57,42.805,6.029,0.002,-0.023,-0.017,104.0,105.0,100.0,13.3,1505.3,324.1,-0.8,1.8,2470.158,13.33,0.023,175.0
2019-07-10T02:48:58,42.805,6.029,0.004,-0.008,-0.024,104.0,105.0,99.0,13.3,1505.3,324.1,-0.7,1.8,2470.13,13.33,0.008,153.4
2019-07-10T02:51:59,42.805,6.029,0.027,0.001,-0.012,103.0,106.0,100.0,13.4,1505.3,326.0,-0.7,1.8,2470.162,13.33,0.027,87.9
2019-07-10T02:55:00,42.805,6.029,0.007,-0.018,-0.033,101.0,105.0,99.0,13.4,1505.3,325.8,-0.7,1.9,2470.114,13.33,0.019,158.8
2019-07-10T02:58:01,42.805,6.029,-0.01,-0.027,-0.031,102.0,105.0,99.0,13.4,1505.3,324.7,-0.7,1.8,2470.164,13.33,0.028,200.3
2019-07-10T03:01:02,42.805,6.029,-0.007,-0.002,-0.023,103.0,105.0,99.0,13.4,1505.3,324.6,-0.7,1.8,2470.157,13.33,0.007,254.1
2019-07-10T03:04:03,42.805,6.029,0.011,-0.008,-0.018,104.0,104.0,100.0,13.4,1505.3,324.5,-0.7,1.8,2470.145,13.33,0.013,126.0
2019-07-10T03:07:04,42.805,6.029,-0.004,-0.008,-0.011,105.0,106.0,101.0,13.4,1505.3,325.2,-0.7,1.8,2470.135,13.33,0.008,206.6
2019-07-10T03:10:05,42.805,6.029,-0.002,-0.015,-0.03,105.0,106.0,100.0,13.4,1505.3,323.0,-0.7,1.9,2470.132,13.33,0.015,187.6
2019-07-10T03:13:06,42.805,6.029,0.0,-0.013,-0.019,104.0,107.0,101.0,13.4,1505.3,327.8,-0.7,1.9,2470.154,13.33,0.013,180.0
2019-07-10T03:16:07,42.805,6.029,0.0,-0.025,0.012,104.0,106.0,101.0,13.4,1505.3,326.4,-0.8,1.8,2470.146,13.33,0.025,180.0
2019-07-10T03:19:08,42.805,6.029,0.004,-0.007,-0.009,106.0,105.0,99.0,13.4,1505.3,326.6,-0.7,1.9,2470.124,13.33,0.008,150.3
2019-07-10T03:22:09,42.805,6.029,-0.009,-0.016,-0.014,106.0,104.0,101.0,13.3,1505.3,324.0,-0.7,1.8,2470.102,13.33,0.018,209.4
2019-07-10T03:25:10,42.805,6.029,0.025,-0.019,-0.018,103.0,106.0,100.0,13.4,1505.3,326.0,-0.8,1.9,2470.126,13.33,0.031,127.2
2019-07-10T03:28:11,42.805,6.029,-0.007,-0.018,0.017,103.0,104.0,101.0,13.4,1505.3,323.5,-0.7,1.9,2470.09,13.33,0.019,201.2
2019-07-10T03:31:12,42.805,6.029,0.006,-0.011,0.0,103.0,106.0,100.0,13.4,1505.3,327.3,-0.7,1.8,2470.13,13.33,0.012,151.4
2019-07-10T03:34:13,42.805,6.029,-0.012,0.001,-0.061,104.0,105.0,98.0,13.4,1505.3,323.3,-0.8,1.8,2470.105,13.33,0.012,274.8
2019-07-10T03:37:14,42.805,6.029,-0.01,-0.012,-0.023,103.0,106.0,98.0,13.3,1505.3,327.4,-0.7,1.8,2470.119,13.33,0.015,219.8
2019-07-10T03:40:15,42.805,6.029,-0.008,-0.011,-0.032,102.0,107.0,99.0,13.4,1505.3,326.6,-0.7,1.8,2470.131,13.33,0.013,216.0
2019-07-10T03:43:16,42.805,6.029,0.004,-0.016,-0.017,101.0,105.0,98.0,13.4,1505.3,325.0,-0.7,1.8,2470.135,13.33,0.016,166.0
2019-07-10T03:46:17,42.805,6.029,0.01,-0.008,-0.014,101.0,103.0,99.0,13.4,1505.3,325.0,-0.7,1.8,2470.129,13.33,0.012,128.7
2019-07-10T03:49:18,42.805,6.029,-0.017,-0.028,-0.038,102.0,104.0,99.0,13.3,1505.3,328.0,-0.7,1.8,2470.118,13.33,0.032,211.3
2019-07-10T03:52:19,42.805,6.029,0.023,0.002,-0.005,103.0,102.0,99.0,13.3,1505.3,327.0,-0.7,1.8,2470.15,13.33,0.023,85.0
2019-07-10T03:55:20,42.805,6.029,0.015,-0.03,-0.024,101.0,104.0,98.0,13.4,1505.3,325.4,-0.7,1.8,2470.113,13.33,0.033,153.4
2019-07-10T03:58:21,42.805,6.029,0.018,-0.015,-0.024,101.0,103.0,99.0,13.4,1505.3,327.8,-0.7,1.8,2470.101,13.33,0.023,129.8
2019-07-10T04:01:22,42.805,6.029,-0.002,-0.018,-0.004,102.0,104.0,98.0,13.4,1505.3,323.4,-0.7,1.8,2470.122,13.33,0.018,186.3
2019-07-10T04:04:23,42.805,6.029,-0.005,-0.012,-0.019,102.0,105.0,98.0,13.4,1505.3,324.8,-0.8,1.8,2470.135,13.33,0.013,202.6
2019-07-10T04:07:24,42.805,6.029,0.009,-0.015,-0.043,102.0,104.0,98.0,13.4,1505.3,328.2,-0.7,1.8,2470.095,13.33,0.017,149.0
2019-07-10T04:10:25,42.805,6.029,0.02,0.014,-0.007,104.0,104.0,99.0,13.4,1505.3,323.3,-0.7,1.8,2470.103,13.33,0.024,55.0
2019-07-10T04:13:26,42.805,6.029,0.001,-0.017,-0.025,102.0,104.0,99.0,13.4,1505.3,325.4,-0.7,1.8,2470.121,13.33,0.017,176.6
2019-07-10T04:16:27,42.805,6.029,0.019,-0.014,-0.013,101.0,104.0,98.0,13.3,1505.3,326.7,-0.7,1.8,2470.14,13.33,0.023,126.4
2019-07-10T04:19:28,42.805,6.029,-0.014,0.0,-0.053,103.0,103.0,99.0,13.4,1505.3,326.3,-0.7,1.8,2470.096,13.33,0.014,270.0
2019-07-10T04:22:29,42.805,6.029,-0.006,-0.036,-0.038,102.0,104.0,100.0,13.4,1505.3,324.6,-0.7,1.9,2470.107,13.33,0.036,189.5
2019-07-10T04:25:30,42.805,6.029,-0.001,-0.004,-0.006,101.0,105.0,101.0,13.4,1505.3,323.8,-0.7,1.9,2470.112,13.33,0.004,194.0
2019-07-10T04:28:31,42.805,6.029,0.004,-0.018,-0.01,103.0,105.0,99.0,13.4,1505.3,324.7,-0.7,1.8,2470.129,13.33,0.018,167.5
2019-07-10T04:31:32,42.805,6.029,0.01,-0.018,-0.021,104.0,105.0,98.0,13.3,1505.3,326.7,-0.7,1.9,2470.09,13.33,0.02,150.9
2019-07-10T04:34:33,42.805,6.029,0.014,-0.025,-0.018,104.0,104.0,99.0,13.4,1505.3,326.5,-0.7,1.8,2470.115,13.33,0.028,150.7
2019-07-10T04:37:34,42.805,6.029,-0.004,-0.002,-0.04,102.0,104.0,100.0,13.4,1505.3,326.2,-0.7,1.8,2470.075,13.33,0.004,243.4
2019-07-10T04:40:35,42.805,6.029,0.002,-0.011,-0.007,102.0,104.0,100.0,13.4,1505.3,325.3,-0.7,1.9,2470.124,13.33,0.011,169.7
2019-07-10T04:43:36,42.805,6.029,0.001,-0.021,-0.014,103.0,104.0,99.0,13.4,1505.3,324.0,-0.7,1.8,2470.139,13.33,0.021,177.3
2019-07-10T04:46:37,42.805,6.029,-0.006,-0.003,0.009,103.0,104.0,100.0,13.4,1505.3,324.0,-0.7,1.9,2470.071,13.33,0.006,243.4
2019-07-10T04:49:38,42.805,6.029,0.0,-0.013,-0.031,102.0,103.0,100.0,13.3,1505.3,324.6,-0.7,1.9,2470.067,13.33,0.013,180.0
2019-07-10T04:52:39,42.805,6.029,0.002,-0.013,-0.028,102.0,104.0,98.0,13.4,1505.3,325.1,-0.7,1.8,2470.078,13.33,0.013,171.3
2019-07-10T04:55:40,42.805,6.029,-0.009,-0.017,0.0,103.0,102.0,98.0,13.4,1505.3,323.2,-0.7,1.8,2470.113,13.33,0.019,207.9
2019-07-10T04:58:41,42.805,6.029,-0.001,-0.013,-0.009,102.0,103.0,100.0,13.3,1505.3,324.5,-0.7,1.9,2470.13,13.33,0.013,184.4
2019-07-10T05:01:42,42.805,6.029,-0.01,-0.007,-0.037,102.0,104.0,99.0,13.4,1505.3,324.5,-0.7,1.8,2470.1,13.33,0.012,235.0
2019-07-10T05:04:43,42.805,6.029,-0.005,-0.007,0.017,102.0,104.0,98.0,13.4,1505.3,325.7,-0.7,1.8,2470.099,13.33,0.008,215.5
2019-07-10T05:07:44,42.805,6.029,-0.011,-0.009,-0.012,101.0,102.0,99.0,13.4,1505.3,326.8,-0.7,1.8,2470.08,13.33,0.014,230.7
2019-07-10T05:10:45,42.805,6.029,0.004,-0.005,-0.006,105.0,104.0,99.0,13.4,1505.3,324.9,-0.7,1.8,2470.11,13.33,0.006,141.3
2019-07-10T05:13:46,42.805,6.029,-0.018,-0.007,-0.021,102.0,104.0,100.0,13.4,1505.3,326.3,-0.7,1.9,2470.091,13.33,0.019,248.8
2019-07-10T05:16:47,42.805,6.029,0.001,-0.028,-0.026,103.0,103.0,99.0,13.4,1505.3,323.6,-0.7,1.8,2470.076,13.33,0.028,178.0
2019-07-10T05:19:48,42.805,6.029,0.005,0.006,-0.004,101.0,103.0,99.0,13.4,1505.3,328.2,-0.7,1.8,2470.06,13.33,0.007,39.8
2019-07-10T05:22:49,42.805,6.029,-0.003,-0.005,-0.021,103.0,105.0,99.0,13.4,1505.3,326.4,-0.7,1.8,2470.081,13.33,0.005,211.0
2019-07-10T05:25:50,42.805,6.029,0.001,0.0,0.014,104.0,105.0,100.0,13.4,1505.3,325.2,-0.7,1.9,2470.076,13.33,0.001,90.0
2019-07-10T05:28:51,42.805,6.029,-0.01,0.001,0.016,102.0,104.0,98.0,13.3,1505.3,323.4,-0.7,1.9,2470.087,13.33,0.01,275.7
2019-07-10T05:31:52,42.805,6.029,0.02,-0.008,0.014,104.0,104.0,98.0,13.4,1505.3,325.2,-0.7,1.8,2470.085,13.33,0.021,111.8
2019-07-10T05:34:53,42.805,6.029,0.008,-0.006,-0.003,103.0,104.0,98.0,13.4,1505.3,327.1,-0.8,1.8,2470.09,13.33,0.01,126.9
2019-07-10T05:37:54,42.805,6.029,0.004,-0.004,-0.01,103.0,104.0,98.0,13.4,1505.3,324.1,-0.7,1.9,2470.06,13.33,0.005,135.0
2019-07-10T05:40:55,42.805,6.029,-0.009,0.005,0.002,103.0,102.0,100.0,13.4,1505.3,326.6,-0.7,1.8,2470.072,13.33,0.01,299.1
2019-07-10T05:43:56,42.805,6.029,-0.011,0.0,-0.022,103.0,104.0,99.0,13.4,1505.3,326.6,-0.8,1.8,2470.118,13.33,0.011,270.0
2019-07-10T05:46:57,42.805,6.029,-0.002,0.011,-0.003,104.0,106.0,99.0,13.4,1505.3,327.4,-0.7,1.9,2470.086,13.33,0.011,349.7
2019-07-10T05:49:58,42.805,6.029,0.045,-0.005,-0.013,103.0,105.0,100.0,13.3,1505.3,323.8,-0.7,1.8,2470.017,13.33,0.045,96.3
2019-07-10T05:52:59,42.805,6.029,0.003,-0.009,-0.005,104.0,105.0,98.0,13.4,1505.3,326.5,-0.7,1.9,2470.059,13.33,0.009,161.6
2019-07-10T05:56:00,42.805,6.029,0.019,-0.008,-0.011,104.0,105.0,98.0,13.4,1505.3,328.0,-0.8,1.8,2470.07,13.33,0.02,112.8
2019-07-10T05:59:01,42.805,6.029,0.008,-0.008,-0.006,103.0,106.0,100.0,13.4,1505.3,325.2,-0.7,1.8,2470.072,13.33,0.011,135.0
2019-07-10T06:02:02,42.805,6.029,0.007,-0.004,0.01,103.0,104.0,98.0,13.4,1505.3,324.4,-0.7,1.8,2470.081,13.33,0.008,119.7
2019-07-10T06:05:03,42.805,6.029,0.002,-0.016,-0.029,102.0,105.0,100.0,13.4,1505.3,323.1,-0.7,1.9,2470.057,13.33,0.016,172.9
2019-07-10T06:08:04,42.805,6.029,0.007,-0.008,-0.002,101.0,104.0,99.0,13.3,1505.3,324.8,-0.7,1.8,2470.032,13.33,0.01,138.8
2019-07-10T06:11:05,42.805,6.029,0.032,0.008,-0.013,103.0,107.0,99.0,13.4,1505.3,323.2,-0.7,1.8,2470.063,13.33,0.032,76.0
2019-07-10T06:14:06,42.805,6.029,0.023,0.0,-0.046,104.0,104.0,100.0,13.4,1505.3,327.8,-0.7,1.8,2470.088,13.33,0.023,90.0
2019-07-10T06:17:07,42.805,6.029,0.0,-0.003,-0.04,104.0,105.0,99.0,13.4,1505.3,324.3,-0.7,1.9,2470.016,13.33,0.003,180.0
2019-07-10T06:20:08,42.805,6.029,0.0,-0.002,-0.026,104.0,105.0,99.0,13.4,1505.3,328.1,-0.7,1.9,2470.083,13.33,0.002,180.0
2019-07-10T06:23:09,42.805,6.029,0.012,-0.016,-0.022,105.0,105.0,100.0,13.3,1505.3,325.5,-0.7,1.9,2470.035,13.33,0.02,143.1
2019-07-10T06:26:10,42.805,6.029,-0.006,0.012,-0.007,101.0,105.0,99.0,13.4,1505.3,325.3,-0.7,1.9,2470.056,13.33,0.013,333.4
2019-07-10T06:29:11,42.805,6.029,0.037,-0.007,-0.022,102.0,106.0,99.0,13.4,1505.3,326.1,-0.7,1.8,2470.047,13.33,0.037,100.7
2019-07-10T06:32:12,42.805,6.029,0.024,-0.008,-0.011,106.0,106.0,99.0,13.4,1505.3,325.3,-0.7,1.8,2470.065,13.33,0.025,108.4
2019-07-10T06:35:13,42.805,6.029,-0.012,-0.003,-0.003,102.0,105.0,98.0,13.4,1505.3,323.0,-0.7,1.8,2470.008,13.33,0.012,256.0
2019-07-10T06:38:14,42.805,6.029,0.008,-0.002,-0.021,103.0,104.0,97.0,13.4,1505.3,326.7,-0.7,1.8,2470.052,13.33,0.008,104.0
2019-07-10T06:41:15,42.805,6.029,0.0,0.002,0.0,101.0,102.0,100.0,13.3,1505.3,328.2,-0.7,1.9,2470.018,13.33,0.002,0.0
2019-07-10T06:44:16,42.805,6.029,-0.007,0.001,0.027,103.0,104.0,98.0,13.3,1505.3,327.2,-0.7,1.8,2470.073,13.33,0.007,278.1
2019-07-10T06:47:17,42.805,6.029,0.005,-0.005,0.015,102.0,105.0,98.0,13.3,1505.3,327.8,-0.7,1.8,2470.008,13.33,0.007,135.0
2019-07-10T06:50:18,42.805,6.029,0.005,0.008,-0.026,102.0,105.0,99.0,13.4,1505.3,325.2,-0.7,1.9,2470.031,13.33,0.009,32.0
2019-07-10T06:53:19,42.805,6.029,0.024,-0.014,0.009,105.0,105.0,98.0,13.3,1505.3,323.4,-0.7,1.8,2469.994,13.33,0.027,120.3
2019-07-10T06:56:20,42.805,6.029,0.005,-0.033,-0.019,103.0,104.0,99.0,13.4,1505.3,325.6,-0.7,1.8,2470.036,13.33,0.033,171.4
2019-07-10T06:59:21,42.805,6.029,0.018,-0.015,-0.046,103.0,103.0,98.0,13.3,1505.3,325.0,-0.7,1.8,2470.006,13.33,0.023,129.8
2019-07-10T07:02:22,42.805,6.029,0.005,-0.013,-0.016,103.0,104.0,100.0,13.4,1505.3,323.5,-0.7,1.8,2469.983,13.33,0.013,159.0
2019-07-10T07:05:23,42.805,6.029,0.013,0.017,-0.002,102.0,104.0,98.0,13.3,1505.3,327.8,-0.7,1.8,2470.017,13.33,0.021,37.4
2019-07-10T07:08:24,42.805,6.029,0.002,-0.009,-0.009,102.0,107.0,99.0,13.4,1505.3,325.5,-0.7,1.8,2470.039,13.33,0.009,167.5
2019-07-10T07:11:25,42.805,6.029,-0.006,0.0,-0.01,103.0,105.0,99.0,13.3,1505.3,327.7,-0.7,1.9,2469.977,13.33,0.006,270.0
2019-07-10T07:14:26,42.805,6.029,0.019,0.006,0.011,102.0,105.0,99.0,13.4,1505.3,327.0,-0.7,1.8,2470.034,13.33,0.019,72.5
2019-07-10T07:17:27,42.805,6.029,0.005,0.001,-0.028,105.0,106.0,100.0,13.3,1505.3,323.8,-0.7,1.8,2470.04,13.33,0.005,78.7
2019-07-10T07:20:28,42.805,6.029,0.03,-0.022,-0.035,103.0,105.0,99.0,13.4,1505.3,324.5,-0.7,1.8,2470.021,13.33,0.037,126.3
2019-07-10T07:23:29,42.805,6.029,0.018,-0.017,-0.007,103.0,105.0,99.0,13.4,1505.3,324.7,-0.7,1.8,2469.999,13.33,0.024,133.4
2019-07-10T07:26:30,42.805,6.029,0.002,-0.006,0.004,104.0,106.0,99.0,13.4,1505.3,326.0,-0.7,1.9,2470.02,13.33,0.006,161.6
2019-07-10T07:29:31,42.805,6.029,-0.003,-0.016,-0.022,103.0,106.0,99.0,13.4,1505.3,324.9,-0.7,1.9,2470.052,13.33,0.016,190.6
2019-07-10T07:32:32,42.805,6.029,0.01,-0.023,-0.015,105.0,105.0,99.0,13.4,1505.3,327.9,-0.7,1.8,2470.013,13.33,0.025,156.5
2019-07-10T07:35:33,42.805,6.029,0.004,-0.009,0.007,102.0,105.0,100.0,13.4,1505.3,325.8,-0.7,1.8,2470.003,13.33,0.009,156.0
2019-07-10T07:38:34,42.805,6.029,0.005,-0.011,-0.017,103.0,105.0,99.0,13.4,1505.3,328.1,-0.7,1.8,2470.022,13.33,0.012,155.6
2019-07-10T07:41:35,42.805,6.029,0.019,0.002,0.007,102.0,105.0,100.0,13.4,1505.3,326.4,-0.7,1.8,2469.987,13.33,0.019,84.0
2019-07-10T07:44:36,42.805,6.029,0.025,0.007,-0.025,103.0,106.0,98.0,13.4,1505.3,325.6,-0.7,1.9,2470.021,13.33,0.025,74.4
2019-07-10T07:47:37,42.805,6.029,-0.005,0.005,-0.017,103.0,106.0,99.0,13.4,1505.3,326.8,-0.7,1.9,2469.98,13.33,0.007,315.0
2019-07-10T07:50:38,42.805,6.029,0.021,-0.001,0.024,100.0,105.0,102.0,13.4,1505.3,323.9,-0.7,1.9,2469.933,13.33,0.021,92.7
2019-07-10T07:53:39,42.805,6.029,0.019,0.004,0.017,102.0,105.0,99.0,13.4,1505.3,324.8,-0.7,1.9,2469.987,13.33,0.019,78.1
2019-07-10T07:56:40,42.805,6.029,0.01,-0.005,-0.003,102.0,105.0,99.0,13.4,1505.3,324.8,-0.7,1.9,2470.03,13.33,0.011,116.6
2019-07-10T07:59:41,42.805,6.029,0.024,-0.005,0.024,101.0,105.0,99.0,13.3,1505.3,326.2,-0.7,1.8,2469.995,13.33,0.024,101.8
2019-07-10T08:02:42,42.805,6.029,0.027,-0.003,-0.048,102.0,104.0,98.0,13.3,1505.3,323.9,-0.8,1.9,2470.006,13.33,0.027,96.3
2019-07-10T08:05:43,42.805,6.029,0.007,-0.009,-0.025,105.0,106.0,100.0,13.4,1505.3,326.7,-0.7,1.8,2470.004,13.33,0.011,142.1
2019-07-10T08:08:44,42.805,6.029,0.026,0.0,-0.009,103.0,105.0,98.0,13.3,1505.3,323.2,-0.7,1.8,2469.982,13.33,0.026,90.0
2019-07-10T08:11:45,42.805,6.029,0.004,-0.007,-0.006,103.0,104.0,99.0,13.3,1505.3,325.2,-0.7,1.9,2469.958,13.33,0.008,150.3
2019-07-10T08:14:46,42.805,6.029,0.009,0.005,-0.009,103.0,105.0,98.0,13.4,1505.3,324.9,-0.7,1.8,2469.978,13.33,0.01,60.9
2019-07-10T08:17:47,42.805,6.029,0.021,-0.002,-0.004,102.0,106.0,100.0,13.3,1505.3,324.2,-0.7,1.8,2470.031,13.33,0.021,95.4
2019-07-10T08:20:48,42.805,6.029,0.015,-0.028,-0.013,100.0,105.0,99.0,13.3,1505.3,323.3,-0.7,1.8,2469.985,13.33,0.031,151.8
2019-07-10T08:23:49,42.805,6.029,0.004,0.013,-0.025,101.0,105.0,98.0,13.4,1505.3,325.9,-0.7,1.8,2469.952,13.33,0.013,17.1
2019-07-10T08:26:50,42.805,6.029,-0.014,-0.029,-0.066,101.0,104.0,100.0,13.4,1505.3,325.8,-0.7,1.8,2470.002,13.33,0.032,205.8
2019-07-10T08:29:51,42.805,6.029,0.007,-0.024,-0.02,99.0,105.0,97.0,13.4,1505.3,326.9,-0.8,1.8,2469.997,13.33,0.025,163.7
2019-07-10T08:32:52,42.805,6.029,0.003,0.0,-0.025,104.0,106.0,99.0,13.3,1505.3,327.0,-0.7,1.8,2469.963,13.33,0.003,90.0
2019-07-10T08:35:53,42.805,6.029,0.008,-0.011,-0.031,102.0,105.0,98.0,13.3,1505.3,325.1,-0.7,1.8,2469.963,13.33,0.013,144.0
2019-07-10T08:38:54,42.805,6.029,-0.024,0.0,-0.043,101.0,104.0,98.0,13.4,1505.3,325.0,-0.7,1.8,2469.946,13.33,0.024,270.0
2019-07-10T08:41:55,42.805,6.029,0.0,-0.012,-0.02,102.0,104.0,98.0,13.4,1505.3,324.7,-0.7,1.9,2469.972,13.33,0.012,180.0
2019-07-10T08:44:56,42.805,6.029,-0.006,-0.029,-0.064,101.0,104.0,99.0,13.3,1505.3,323.3,-0.7,1.8,2470.004,13.33,0.029,191.7
2019-07-10T08:47:57,42.805,6.029,0.0,-0.009,-0.037,102.0,103.0,97.0,13.4,1505.3,324.8,-0.7,1.8,2470.008,13.33,0.009,180.0
2019-07-10T08:50:58,42.805,6.029,-0.004,0.012,-0.058,102.0,105.0,98.0,13.3,1505.3,325.7,-0.7,1.8,2469.971,13.33,0.012,341.6
2019-07-10T08:53:59,42.805,6.029,-0.02,0.007,-0.009,100.0,104.0,100.0,13.4,1505.3,327.6,-0.7,1.8,2470.0,13.33,0.021,289.3
2019-07-10T08:57:00,42.805,6.029,-0.033,-0.016,-0.051,101.0,105.0,98.0,13.4,1505.3,324.4,-0.8,1.8,2469.989,13.33,0.036,244.1
2019-07-10T09:00:01,42.805,6.029,0.021,0.0,-0.009,102.0,104.0,98.0,13.3,1505.3,325.0,-0.7,1.8,2470.012,13.33,0.021,90.0
2019-07-10T09:03:02,42.805,6.029,-0.003,-0.009,-0.039,101.0,104.0,98.0,13.3,1505.3,325.3,-0.7,1.9,2470.016,13.33,0.009,198.4
2019-07-10T09:06:03,42.805,6.029,-0.005,-0.001,-0.048,103.0,106.0,98.0,13.3,1505.3,324.6,-0.7,1.8,2469.969,13.33,0.005,258.7
2019-07-10T09:09:04,42.805,6.029,-0.013,-0.002,-0.042,102.0,105.0,97.0,13.3,1505.3,326.6,-0.7,1.8,2470.016,13.33,0.013,261.3
2019-07-10T09:12:05,42.805,6.029,-0.009,0.016,-0.043,102.0,105.0,98.0,13.4,1505.3,327.7,-0.7,1.8,2469.981,13.33,0.018,330.6
2019-07-10T09:15:06,42.805,6.029,-0.021,-0.01,-0.037,101.0,106.0,100.0,13.4,1505.3,323.9,-0.7,1.8,2469.952,13.33,0.023,244.5
2019-07-10T09:18:07,42.805,6.029,-0.008,0.004,-0.03,101.0,104.0,98.0,13.4,1505.3,327.6,-0.8,1.8,2470.011,13.33,0.008,296.6
2019-07-10T09:21:08,42.805,6.029,0.0,0.008,-0.024,102.0,104.0,100.0,13.4,1505.3,326.5,-0.7,1.8,2469.98,13.33,0.008,0.0
2019-07-10T09:24:09,42.805,6.029,-0.001,-0.016,-0.033,102.0,106.0,99.0,13.3,1505.3,324.5,-0.8,1.8,2470.027,13.33,0.016,183.6
2019-07-10T09:27:10,42.805,6.029,-0.022,0.0,-0.027,104.0,104.0,98.0,13.3,1505.3,327.4,-0.7,1.8,2469.972,13.33,0.022,270.0
2019-07-10T09:30:11,42.805,6.029,0.0,-0.018,-0.04,102.0,107.0,99.0,13.4,1505.3,325.1,-0.7,1.9,2470.015,13.33,0.018,180.0
2019-07-10T09:33:12,42.805,6.029,0.006,-0.02,-0.024,105.0,107.0,99.0,13.3,1505.3,323.1,-0.7,1.8,2469.964,13.33,0.02,163.3
2019-07-10T09:36:13,42.805,6.029,0.033,0.007,-0.002,104.0,107.0,99.0,13.4,1505.3,325.2,-0.7,1.9,2469.995,13.33,0.033,78.0
2019-07-10T09:39:14,42.805,6.029,0.025,-0.005,-0.015,103.0,108.0,99.0,13.4,1505.3,324.8,-0.7,1.8,2470.044,13.33,0.025,101.3